WB7GR Weather Reports


time (UTC)temp
C
wind
direction
speed
KPH
gust
KPH
rain 1hr
cm
rain 24hr
cm
rain mn
cm
humidity
%
barometer
mb
20260906204552 30 119 3.2 20.9 0.00 0.00 0.00 40 1018.1
20260906203057 29 82 9.7 22.5 0.00 0.00 0.00 41 1018.3
20260906201602 29 98 4.8 16.1 0.00 0.00 0.00 40 1018.5
20260906200054 29 151 9.7 20.9 0.00 0.00 0.00 41 1018.6
20260906194558 29 83 8.0 17.7 0.00 0.00 0.00 41 1018.7
20260906193043 28 150 8.0 20.9 0.00 0.00 0.00 42 1018.8
20260906191607 28 117 8.0 17.7 0.00 0.00 0.00 43 1019.3
20260906190049 28 61 8.0 17.7 0.00 0.00 0.00 44 1019.4
20260906184555 28 132 6.4 17.7 0.00 0.00 0.00 43 1019.8
20260906183058 28 115 3.2 16.1 0.00 0.00 0.00 44 1020.1
20260906181540 27 169 526.3 526.3 0.00 0.00 0.00 45 1020.3
20260906180105 27 126 1.6 6.4 0.00 0.00 0.00 45 1020.4
20260906174549 27 86 526.3 526.3 0.00 0.00 0.00 46 1020.8
20260906173100 26 46 0.0 1.6 0.00 0.00 0.00 48 1020.8
20260906171607 25 92 0.0 1.6 0.00 0.00 0.00 51 1021.0
20260906170050 24 121 0.0 9.7 0.00 0.00 0.00 54 1021.3
20260906164618 23 191 3.2 9.7 0.00 0.00 0.00 60 1021.3
20260906163044 22 177 1.6 8.0 0.00 0.00 0.00 62 1021.4
20260906161551 22 140 4.8 8.0 0.00 0.00 0.00 65 1021.6
20260906160054 22 144 4.8 12.9 0.00 0.00 0.00 64 1021.6
20260906154554 22 153 4.8 14.5 0.00 0.00 0.00 66 1021.7
20260906153042 21 146 8.0 16.1 0.00 0.00 0.00 69 1021.7
20260906151548 21 123 8.0 17.7 0.00 0.00 0.00 69 1021.6
20260906150051 20 192 6.4 14.5 0.00 0.00 0.00 71 1021.6
20260906144619 20 155 4.8 12.9 0.00 0.00 0.00 72 1021.7
20260906143045 19 205 1.6 16.1 0.00 0.00 0.00 73 1021.6
20260906141555 18 192 4.8 12.9 0.00 0.00 0.00 76 1021.6
20260906140046 17 210 1.6 11.3 0.00 0.00 0.00 78 1021.7
20260906134611 17 193 1.6 8.0 0.00 0.00 0.00 82 1021.6
20260906133056 16 206 0.0 3.2 0.00 0.00 0.00 85 1021.5
20260906131542 15 200 0.0 3.2 0.00 0.00 0.00 86 1021.4
20260906130045 15 189 0.0 9.7 0.00 0.00 0.00 87 1021.5
20260906124549 15 188 1.6 6.4 0.00 0.00 0.00 86 1021.4
20260906123052 15 243 1.6 9.7 0.00 0.00 0.00 86 1021.3
20260906121541 16 219 0.0 4.8 0.00 0.00 0.00 84 1021.2
20260906120045 16 172 3.2 11.3 0.00 0.00 0.00 83 1021.2
20260906114547 16 248 1.6 8.0 0.00 0.00 0.00 83 1021.2
20260906113052 16 192 3.2 8.0 0.00 0.00 0.00 83 1021.1
20260906111553 17 179 1.6 9.7 0.00 0.00 0.00 83 1021.0
20260906110059 17 187 4.8 8.0 0.00 0.00 0.00 82 1021.0
20260906104542 17 174 1.6 8.0 0.00 0.00 0.00 82 1021.3
20260906103047 17 169 1.6 6.4 0.00 0.00 0.00 82 1021.2
20260906101549 17 180 3.2 12.9 0.00 0.00 0.00 81 1021.0
20260906100052 17 207 1.6 6.4 0.00 0.00 0.00 80 1020.9
20260906094559 16 248 0.0 9.7 0.00 0.00 0.00 79 1020.7
20260906084554 16 239 0.0 0.0 0.00 0.00 0.00 77 1020.6
20260906083118 16 207 0.0 1.6 0.00 0.00 0.00 77 1020.7
20260906081602 16 198 0.0 3.2 0.00 0.00 0.00 76 1021.0
20260906080046 16 230 0.0 3.2 0.00 0.00 0.00 75 1020.9
20260906074548 16 198 0.0 3.2 0.00 0.00 0.00 75 1021.0
20260906073116 17 232 0.0 0.0 0.00 0.00 0.00 76 1021.0
20260906071559 17 255 1.6 4.8 0.00 0.00 0.00 77 1021.0
20260906070100 17 254 1.6 4.8 0.00 0.00 0.00 78 1020.8
20260906064603 17 254 0.0 3.2 0.00 0.00 0.00 79 1020.9
20260906063109 17 281 0.0 3.2 0.00 0.00 0.00 80 1020.8
20260906061611 17 248 1.6 3.2 0.00 0.00 0.00 81 1020.9
20260906060052 17 57 526.3 526.3 0.00 0.00 0.00 82 1020.7
20260906054606 17 57 0.0 0.0 0.00 0.00 0.00 81 1020.7
20260906053049 17 57 0.0 0.0 0.00 0.00 0.00 80 1020.8
20260906051551 18 57 0.0 0.0 0.00 0.00 0.00 78 1020.7
20260906050115 18 57 0.0 6.4 0.00 0.00 0.00 78 1020.8
20260906043057 18 68 1.6 3.2 0.00 0.00 0.00 71 1020.7
20260906041601 19 71 1.6 8.0 0.00 0.00 0.00 67 1020.8
20260906040046 20 58 3.2 16.1 0.00 0.00 0.00 61 1020.6
20260906034549 21 37 0.0 0.0 0.00 0.00 0.00 58 1020.6
20260906033054 22 350 0.0 3.2 0.00 0.00 0.00 56 1020.2
20260906031621 22 355 1.6 3.2 0.00 0.00 0.00 51 1020.1
20260906030044 23 74 0.0 0.0 0.00 0.00 0.00 44 1020.0
20260906024546 23 74 526.3 526.3 0.00 0.00 0.00 40 1019.9
20260906023053 24 89 11.3 16.1 0.00 0.00 0.00 38 1020.2
20260906021558 25 288 1.6 6.4 0.00 0.00 0.00 36 1019.5
20260906020120 25 275 1.6 12.9 0.00 0.00 0.00 35 1019.3
20260906014543 26 273 1.6 6.4 0.00 0.00 0.00 34 1019.3
20260906013049 26 355 1.6 9.7 0.00 0.00 0.00 33 1019.0
20260906011552 27 328 4.8 14.5 0.00 0.00 0.00 31 1019.1
20260906010117 28 266 4.8 14.5 0.00 0.00 0.00 30 1019.4
20260906004559 29 338 0.0 1.6 0.00 0.00 0.00 29 1019.4
20260906003103 30 355 0.0 3.2 0.00 0.00 0.00 29 1019.2
20260906001545 30 327 0.0 4.8 0.00 0.00 0.00 28 1019.3
20260906000051 30 310 0.0 8.0 0.00 0.00 0.00 27 1019.3
20260905234557 31 11 0.0 6.4 0.00 0.00 0.00 26 1019.3
20260905233059 31 34 0.0 0.0 0.00 0.00 0.00 26 1019.1
20260905231605 31 73 0.0 9.7 0.00 0.00 0.00 27 1019.2
20260905230052 31 57 0.0 3.2 0.00 0.00 0.00 27 1019.1
20260905224555 30 351 0.0 4.8 0.00 0.00 0.00 28 1019.0
20260905223057 30 11 1.6 6.4 0.00 0.00 0.00 28 1018.9
20260905221602 30 78 0.0 9.7 0.00 0.00 0.00 26 1019.2
20260905220043 30 22 0.0 16.1 0.00 0.00 0.00 27 1019.1
20260905214546 30 65 4.8 12.9 0.00 0.00 0.00 27 1019.3
20260905213114 30 69 14.5 25.7 0.00 0.00 0.00 26 1019.5